This demonstration page uses our WeatherBlox Daily Observations layout. Learn more.

Left ArrowRight Arrow

Hourly Observations for November 23, 2020

Temp ( °F °C ) Dew Point ( °F °C ) Humidity (%) Winds ( mph kmh ) Pressure ( in mb ) Visibility ( mi km ) Precip ( " mm )
12:15 am 00:15 Cloudy 37 3 37 3 100 100 SW 7 11 30.26 1025 7 11 N/A
12:35 am 00:35 Cloudy 37 3 37 3 100 100 SW 7 11 30.27 1025 7 11 N/A
12:55 am 00:55 Cloudy 37 3 37 3 100 100 SW 6 9 30.26 1025 7 11 N/A
1:15 am 01:15 Cloudy 37 3 37 3 100 100 SW 6 9 30.26 1025 7 11 N/A
1:35 am 01:35 Cloudy 39 4 39 4 100 100 SW 8 13 30.26 1025 10 16 N/A
1:55 am 01:55 Cloudy 39 4 39 4 100 100 SW 8 13 30.25 1024 10 16 N/A
2:15 am 02:15 Cloudy 39 4 39 4 100 100 WSW 9 15 30.25 1024 10 16 N/A
2:35 am 02:35 Cloudy 39 4 39 4 100 100 SW 9 15 30.26 1025 10 16 N/A
2:55 am 02:55 Cloudy 37 3 37 3 100 100 SW 8 13 30.26 1025 10 16 N/A
3:15 am 03:15 Cloudy 39 4 39 4 100 100 WSW 8 13 30.27 1025 7 11 N/A
3:35 am 03:35 Cloudy 39 4 39 4 100 100 WSW 9 15 30.27 1025 10 16 N/A
3:55 am 03:55 Cloudy 39 4 39 4 100 100 WSW 9 15 30.27 1025 7 11 N/A
4:15 am 04:15 Cloudy 39 4 39 4 100 100 W 13 20 30.27 1025 10 16 N/A
4:35 am 04:35 Cloudy 39 4 39 4 100 100 W 10 17 30.28 1025 10 16 N/A
4:55 am 04:55 Cloudy 39 4 39 4 100 100 W 10 17 30.28 1025 10 16 N/A
5:15 am 05:15 Mostly Cloudy 37 3 37 3 100 100 W 9 15 30.27 1025 10 16 N/A
5:35 am 05:35 Partly Cloudy 36 2 36 2 100 100 W 9 15 30.29 1026 10 16 N/A
5:55 am 05:55 Clear 34 1 34 1 100 100 W 8 13 30.30 1026 10 16 N/A
6:15 am 06:15 Clear 34 1 34 1 100 100 W 7 11 30.30 1026 7 11 N/A
6:35 am 06:35 Clear 34 1 34 1 100 100 WSW 7 11 30.30 1026 7 11 N/A
6:55 am 06:55 Clear 32 undefined 32 undefined 100 100 WSW 7 11 30.32 1027 7 11 N/A
7:15 am 07:15 Partly Cloudy 34 1 34 1 100 100 W 5 7 30.31 1026 7 11 N/A
7:35 am 07:35 Partly Cloudy 32 undefined 32 undefined 100 100 W 5 7 30.33 1027 7 11 N/A
7:55 am 07:55 Partly Cloudy 32 undefined 32 undefined 100 100 W 6 9 30.34 1027 5 8 N/A
8:15 am 08:15 Sunny 32 undefined 32 undefined 100 100 W 5 7 30.34 1027 5 8 N/A
8:35 am 08:35 Sunny 34 1 34 1 100 100 WSW 5 7 30.35 1028 5 8 N/A
8:55 am 08:55 Sunny 36 2 36 2 100 100 W 5 7 30.34 1027 7 11 N/A
9:15 am 09:15 Sunny 37 3 37 3 100 100 W 7 11 30.34 1028 10 16 N/A
9:35 am 09:35 Sunny 37 3 37 3 100 100 WNW 6 9 30.35 1028 10 16 N/A
9:55 am 09:55 Sunny 39 4 39 4 100 100 NW 5 7 30.35 1028 10 16 N/A
10:15 am 10:15 Sunny 39 4 39 4 100 100 NNW 3 6 30.36 1028 10 16 N/A
10:35 am 10:35 Partly Cloudy 39 4 39 4 100 100 N N/A 30.36 1028 10 16 N/A
10:55 am 10:55 Sunny 41 5 39 4 93 93 N N/A 30.37 1028 10 16 N/A
11:15 am 11:15 Partly Cloudy 43 6 39 4 87 87 N N/A 30.35 1028 10 16 N/A
11:35 am 11:35 Partly Cloudy 43 6 39 4 87 87 N N/A 30.35 1028 10 16 N/A
11:55 am 11:55 Partly Cloudy 43 6 39 4 87 87 NNE 3 6 30.35 1028 10 16 N/A
12:15 pm 12:15 Mostly Cloudy 43 6 39 4 87 87 N N/A 30.35 1028 10 16 N/A
12:35 pm 12:35 Mostly Cloudy 45 7 39 4 81 81 N N/A 30.35 1028 10 16 N/A
12:55 pm 12:55 Partly Cloudy 45 7 37 3 76 76 N N/A 30.34 1027 10 16 N/A
1:15 pm 13:15 Mostly Cloudy 43 6 37 3 81 81 N N/A 30.33 1027 10 16 N/A
1:35 pm 13:35 Partly Cloudy 45 7 39 4 81 81 N 3 6 30.33 1027 10 16 N/A
1:55 pm 13:55 Partly Cloudy 46 8 37 3 71 71 N N/A 30.32 1027 10 16 N/A
2:15 pm 14:15 Mostly Cloudy 45 7 36 2 71 71 N N/A 30.32 1027 10 16 N/A
2:35 pm 14:35 Mostly Cloudy 46 8 39 4 76 76 N N/A 30.32 1027 10 16 N/A
2:55 pm 14:55 Mostly Cloudy 45 7 37 3 76 76 N N/A 30.32 1027 10 16 N/A
3:15 pm 15:15 Partly Cloudy 45 7 36 2 71 71 WSW 3 6 30.32 1027 10 16 N/A
3:35 pm 15:35 Sunny 46 8 36 2 66 66 WNW 8 13 30.31 1026 10 16 N/A
3:55 pm 15:55 Sunny 46 8 36 2 66 66 W 7 11 30.31 1026 10 16 N/A
4:15 pm 16:15 Partly Cloudy 41 5 34 1 76 76 WNW 5 7 30.33 1027 10 16 N/A
4:35 pm 16:35 Partly Cloudy 41 5 36 2 81 81 WNW 5 7 30.35 1028 10 16 N/A
4:55 pm 16:55 Sunny 39 4 36 2 87 87 W 6 9 30.35 1028 10 16 N/A
5:15 pm 17:15 Sunny 39 4 34 1 81 81 WNW 5 7 30.35 1028 10 16 N/A
5:35 pm 17:35 Clear 39 4 34 1 81 81 WNW 3 6 30.35 1028 10 16 N/A
5:55 pm 17:55 Clear 39 4 36 2 87 87 NW 3 6 30.35 1028 10 16 N/A
6:15 pm 18:15 Clear 37 3 36 2 93 93 N N/A 30.35 1028 10 16 N/A
6:35 pm 18:35 Clear 37 3 37 3 100 100 N N/A 30.35 1028 10 16 N/A
6:55 pm 18:55 Clear 37 3 37 3 100 100 N N/A 30.35 1028 10 16 N/A
7:15 pm 19:15 Clear 37 3 37 3 100 100 N N/A 30.36 1028 10 16 N/A
7:35 pm 19:35 Clear 39 4 37 3 93 93 N N/A 30.36 1028 10 16 N/A
7:55 pm 19:55 Clear 37 3 37 3 100 100 N N/A 30.37 1029 10 16 N/A
8:15 pm 20:15 Clear 37 3 37 3 100 100 N N/A 30.36 1028 10 16 N/A
8:35 pm 20:35 Clear 37 3 37 3 100 100 N N/A 30.35 1028 10 16 N/A
8:55 pm 20:55 Clear 37 3 37 3 100 100 N N/A 30.36 1028 10 16 N/A
9:15 pm 21:15 Clear 36 2 36 2 100 100 N N/A 30.36 1028 10 16 N/A
9:35 pm 21:35 Clear 36 2 36 2 100 100 E 3 6 30.36 1028 10 16 N/A
9:55 pm 21:55 Clear 36 2 36 2 100 100 N N/A 30.35 1028 10 16 N/A
10:15 pm 22:15 Clear 36 2 36 2 100 100 N N/A 30.35 1028 10 16 N/A
10:35 pm 22:35 Clear 34 1 34 1 100 100 N N/A 30.36 1028 10 16 N/A
10:55 pm 22:55 Clear 34 1 34 1 100 100 N N/A 30.36 1028 10 16 N/A
11:15 pm 23:15 Clear 34 1 34 1 100 100 N N/A 30.36 1028 10 16 N/A
11:35 pm 23:35 Clear 34 1 34 1 100 100 N N/A 30.36 1028 10 16 N/A
11:55 pm 23:55 Partly Cloudy 34 1 34 1 100 100 N N/A 30.35 1028 7 11 N/A

Powered by AerisWeather